TimeEDT,TemperatureF,Dew PointF,Humidity,Sea Level PressureIn,VisibilityMPH,Wind Direction,Wind SpeedMPH,Gust SpeedMPH,PrecipitationIn,Events,Conditions,WindDirDegrees,DateUTC
12:15 AM,51.8,42.8,71,29.96,10.0,NNE,4.6,-,N/A,,Overcast,20,2013-03-17 04:15:00
12:35 AM,51.8,41.0,67,29.96,7.0,NNE,8.1,-,N/A,,Overcast,30,2013-03-17 04:35:00
12:55 AM,51.8,41.0,67,29.97,7.0,NNE,10.4,-,N/A,Rain,Rain,30,2013-03-17 04:55:00
1:15 AM,50.0,42.8,76,29.96,7.0,East,3.5,-,N/A,,Light Drizzle,100,2013-03-17 05:15:00
1:35 AM,50.0,41.0,71,29.96,7.0,NE,6.9,-,N/A,,Overcast,40,2013-03-17 05:35:00
1:55 AM,50.0,41.0,71,29.96,7.0,NNE,6.9,-,N/A,,Overcast,30,2013-03-17 05:55:00
2:15 AM,50.0,41.0,71,29.98,7.0,WNW,4.6,-,N/A,,Overcast,300,2013-03-17 06:15:00
2:35 AM,48.2,41.0,76,29.97,5.0,NNE,4.6,-,N/A,Rain,Rain,30,2013-03-17 06:35:00
2:55 AM,46.4,42.8,87,29.97,7.0,North,4.6,-,N/A,,Overcast,10,2013-03-17 06:55:00
3:15 AM,46.4,42.8,87,29.97,5.0,NNE,4.6,-,N/A,,Light Drizzle,20,2013-03-17 07:15:00
3:35 AM,46.4,41.0,81,29.96,5.0,NE,4.6,-,N/A,Rain,Light Rain,50,2013-03-17 07:35:00
3:55 AM,46.4,42.8,87,29.95,5.0,NE,3.5,-,N/A,Rain,Rain,50,2013-03-17 07:55:00
4:15 AM,46.4,42.8,87,29.94,5.0,Calm,Calm,-,N/A,,Overcast,0,2013-03-17 08:15:00
4:35 AM,46.4,42.8,87,29.93,5.0,Calm,Calm,-,N/A,,Haze,0,2013-03-17 08:35:00
4:55 AM,46.4,42.8,87,29.94,5.0,Calm,Calm,-,N/A,,Haze,0,2013-03-17 08:55:00
5:15 AM,46.4,42.8,87,29.96,5.0,North,8.1,-,N/A,Rain,Light Rain,360,2013-03-17 09:15:00
5:35 AM,44.6,42.8,93,29.96,4.0,NE,6.9,-,0.02,Rain,Rain,40,2013-03-17 09:35:00
5:55 AM,44.6,42.8,93,29.96,5.0,North,5.8,-,0.02,Rain,Light Rain,10,2013-03-17 09:55:00
6:35 AM,44.6,41.0,87,29.98,5.0,NE,11.5,-,N/A,,Overcast,40,2013-03-17 10:35:00
6:55 AM,44.6,41.0,87,29.99,4.0,NNE,8.1,-,N/A,,Light Drizzle,30,2013-03-17 10:55:00
7:15 AM,42.8,41.0,93,30.01,4.0,NE,6.9,-,N/A,,Overcast,40,2013-03-17 11:15:00
7:35 AM,42.8,41.0,93,30.02,4.0,NNE,5.8,-,N/A,,Overcast,30,2013-03-17 11:35:00
7:55 AM,42.8,41.0,93,30.02,4.0,NE,8.1,-,N/A,,Overcast,40,2013-03-17 11:55:00
8:15 AM,42.8,41.0,93,30.03,3.0,NE,6.9,-,N/A,,Overcast,40,2013-03-17 12:15:00
8:35 AM,42.8,41.0,93,30.03,4.0,NE,9.2,-,N/A,,Overcast,40,2013-03-17 12:35:00
8:55 AM,42.8,39.2,87,30.02,4.0,NNE,9.2,-,N/A,,Overcast,30,2013-03-17 12:55:00
9:15 AM,42.8,39.2,87,30.04,4.0,NNE,8.1,-,N/A,,Overcast,30,2013-03-17 13:15:00
9:35 AM,41.0,39.2,93,30.05,4.0,NNE,10.4,16.1,N/A,,Overcast,30,2013-03-17 13:35:00
9:55 AM,41.0,37.4,87,30.05,5.0,NE,9.2,-,N/A,,Overcast,50,2013-03-17 13:55:00
10:15 AM,41.0,37.4,87,30.05,5.0,NE,10.4,-,N/A,,Overcast,40,2013-03-17 14:15:00
10:35 AM,41.0,37.4,87,30.04,5.0,ENE,6.9,-,N/A,,Overcast,60,2013-03-17 14:35:00
10:55 AM,42.8,39.2,87,30.05,5.0,NE,4.6,-,N/A,,Overcast,50,2013-03-17 14:55:00
11:15 AM,42.8,41.0,93,30.04,5.0,ENE,6.9,-,N/A,,Overcast,60,2013-03-17 15:15:00
11:35 AM,42.8,41.0,93,30.04,5.0,ENE,6.9,-,N/A,,Overcast,70,2013-03-17 15:35:00
11:55 AM,44.6,41.0,87,30.03,5.0,ENE,11.5,-,N/A,,Overcast,70,2013-03-17 15:55:00
12:15 PM,44.6,39.2,81,30.03,7.0,ENE,9.2,16.1,N/A,,Overcast,60,2013-03-17 16:15:00
12:35 PM,46.4,39.2,76,30.03,10.0,ENE,8.1,17.3,N/A,,Overcast,60,2013-03-17 16:35:00
12:55 PM,46.4,39.2,76,30.02,10.0,NE,11.5,17.3,N/A,,Overcast,50,2013-03-17 16:55:00
1:15 PM,46.4,39.2,76,30.02,10.0,ENE,12.7,17.3,N/A,,Overcast,60,2013-03-17 17:15:00
1:35 PM,46.4,37.4,71,30.01,10.0,East,11.5,18.4,N/A,,Overcast,90,2013-03-17 17:35:00
1:55 PM,48.2,37.4,66,29.99,10.0,East,9.2,-,N/A,,Overcast,90,2013-03-17 17:55:00
2:15 PM,48.2,37.4,66,29.99,10.0,ENE,9.2,-,N/A,,Overcast,60,2013-03-17 18:15:00
2:35 PM,50.0,37.4,62,29.98,10.0,East,12.7,16.1,N/A,,Overcast,100,2013-03-17 18:35:00
2:55 PM,50.0,37.4,62,29.96,10.0,ENE,9.2,-,N/A,,Overcast,70,2013-03-17 18:55:00
3:15 PM,50.0,37.4,62,29.96,10.0,ENE,10.4,-,N/A,,Overcast,70,2013-03-17 19:15:00
3:35 PM,50.0,37.4,62,29.95,10.0,East,10.4,-,N/A,,Overcast,90,2013-03-17 19:35:00
3:55 PM,50.0,37.4,62,29.95,10.0,NE,13.8,-,N/A,,Overcast,40,2013-03-17 19:55:00
4:15 PM,50.0,37.4,62,29.95,10.0,NE,15.0,-,N/A,,Overcast,40,2013-03-17 20:15:00
4:35 PM,48.2,37.4,66,29.95,10.0,NNE,12.7,-,N/A,,Overcast,30,2013-03-17 20:35:00
4:55 PM,44.6,37.4,76,29.97,10.0,North,12.7,19.6,N/A,,Overcast,10,2013-03-17 20:55:00
5:15 PM,42.8,37.4,81,29.95,10.0,NE,11.5,-,N/A,,Overcast,40,2013-03-17 21:15:00
5:35 PM,42.8,37.4,81,29.96,10.0,NNE,9.2,-,N/A,Rain,Light Rain,20,2013-03-17 21:35:00
5:55 PM,41.0,37.4,87,29.96,7.0,NE,11.5,-,N/A,Rain,Light Rain,40,2013-03-17 21:55:00
6:15 PM,41.0,37.4,87,29.96,10.0,NE,9.2,-,N/A,Rain,Rain,40,2013-03-17 22:15:00
6:35 PM,41.0,37.4,87,29.96,7.0,NE,8.1,-,0.01,Rain,Light Rain,40,2013-03-17 22:35:00
6:55 PM,41.0,37.4,87,29.95,7.0,East,11.5,17.3,0.02,Rain,Light Rain,90,2013-03-17 22:55:00
7:15 PM,41.0,37.4,87,29.95,10.0,East,8.1,-,N/A,Rain,Rain,80,2013-03-17 23:15:00
7:35 PM,41.0,37.4,87,29.96,10.0,East,6.9,-,N/A,,Light Drizzle,100,2013-03-17 23:35:00
7:55 PM,39.2,37.4,93,29.96,10.0,East,8.1,-,N/A,,Light Drizzle,90,2013-03-17 23:55:00
8:15 PM,39.2,37.4,93,29.96,10.0,East,5.8,-,N/A,,Light Drizzle,100,2013-03-18 00:15:00
8:35 PM,39.2,37.4,93,29.95,10.0,East,6.9,-,N/A,Rain,Light Rain,100,2013-03-18 00:35:00
8:55 PM,39.2,37.4,93,29.94,10.0,East,6.9,-,N/A,Rain,Rain,90,2013-03-18 00:55:00
9:15 PM,39.2,37.4,93,29.94,10.0,ENE,3.5,-,0.01,Rain,Light Rain,70,2013-03-18 01:15:00
9:35 PM,39.2,37.4,93,29.94,10.0,NE,8.1,-,0.01,Rain,Light Rain,40,2013-03-18 01:35:00
9:55 PM,39.2,37.4,93,29.93,10.0,ENE,5.8,-,0.01,,Light Drizzle,70,2013-03-18 01:55:00
10:15 PM,41.0,37.4,87,29.93,10.0,ENE,4.6,-,N/A,,Overcast,70,2013-03-18 02:15:00
10:35 PM,41.0,37.4,87,29.93,10.0,ENE,5.8,-,N/A,,Overcast,70,2013-03-18 02:35:00
10:55 PM,41.0,37.4,87,29.92,10.0,ENE,5.8,-,N/A,,Overcast,70,2013-03-18 02:55:00
11:15 PM,41.0,37.4,87,29.93,10.0,ENE,4.6,-,N/A,,Overcast,60,2013-03-18 03:15:00
11:35 PM,41.0,37.4,87,29.92,10.0,East,5.8,-,N/A,,Overcast,80,2013-03-18 03:35:00
11:55 PM,39.2,37.4,93,29.91,10.0,East,3.5,-,N/A,,Overcast,80,2013-03-18 03:55:00